Wind_Speed
27 28 27 27 27 27 28 27 27 27 28 27 25 24 23 22 22 23 24 25 25 24 23 22 22 23 24 23 23 22 22 22 21 19 18 17 17 16 16 17 18 19 20 21 21 21 21 22 23 23 23 23 24 25 26 27 29 31 33 35 35 35 36
28 30 30 30 29 28 28 27 26 26 27 26 25 25 24 23 24 23 24 25 25 25 23 23 23 23 22 21 21 22 22 22 21 19 18 17 15 15 16 17 18 19 20 21 22 22 22 22 22 22 23 24 25 26 27 28 30 31 31 32 32 33 34
29 30 32 31 29 29 29 27 26 26 26 26 25 25 25 25 26 25 25 26 25 24 22 22 22 21 19 20 20 22 22 22 20 19 17 15 14 14 15 16 17 18 19 21 22 22 23 23 22 22 23 24 25 26 27 28 30 31 31 31 32 32 34
28 29 30 30 29 29 29 27 26 26 26 26 26 26 26 27 28 27 26 25 23 21 19 20 20 19 19 20 21 23 23 22 20 17 15 13 13 14 15 16 17 18 20 21 22 23 23 23 23 23 24 25 25 25 26 28 30 31 31 32 32 33 35
28 28 27 27 27 26 27 27 26 27 26 26 26 27 26 26 25 24 24 23 22 21 20 20 19 18 20 22 23 22 20 18 16 14 12 12 13 14 15 16 17 19 20 21 22 23 23 23 23 24 25 26 26 27 28 29 30 30 31 31 32 34 36
28 27 26 26 26 26 26 26 26 26 26 25 25 25 25 24 22 23 23 22 22 22 21 19 18 19 22 23 21 19 16 14 12 11 11 12 13 14 15 17 18 19 20 21 22 23 23 23 24 25 26 27 28 29 30 30 31 30 31 31 33 35 36
27 26 24 24 25 25 26 26 26 26 26 25 24 24 25 24 23 23 23 22 23 22 20 18 18 19 19 19 17 15 13 12 10 10 12 12 13 14 16 17 18 20 21 21 22 23 23 24 25 26 27 28 29 30 31 31 30 30 30 31 33 34 36
26 25 23 23 24 25 26 26 27 27 26 26 25 25 25 25 23 22 22 23 23 21 19 18 17 18 17 16 15 13 11 10 10 11 12 13 14 15 17 18 19 20 21 22 23 23 24 25 26 27 28 28 28 29 30 29 29 29 30 31 33 34 36
23 23 22 22 23 24 24 26 27 27 27 26 26 25 25 24 23 20 20 21 21 20 18 18 18 19 18 16 14 12 10 11 11 12 12 14 15 16 18 19 20 21 22 22 23 24 25 25 26 27 28 29 29 29 29 28 28 29 30 32 33 34 36
22 22 22 22 22 22 23 24 25 25 24 24 24 23 22 21 21 20 20 19 18 18 18 19 20 20 18 15 13 11 10 11 12 12 14 15 16 17 19 20 21 21 22 23 24 25 25 26 27 28 29 29 29 29 28 28 28 29 30 31 33 35 37
22 21 20 21 22 23 23 24 23 21 20 20 20 20 19 19 18 18 18 17 16 17 19 21 21 18 15 12 10 10 10 12 12 13 15 16 17 18 20 21 21 22 23 25 26 26 26 27 27 28 29 29 28 28 27 28 29 29 30 32 33 35 37
21 20 20 20 21 22 22 22 21 19 18 18 18 18 18 17 15 15 14 15 16 19 20 19 16 13 10 9 9 10 11 12 13 14 15 16 18 20 21 21 22 23 25 26 26 27 27 27 28 28 28 28 27 27 27 28 28 29 30 32 33 35 37
18 19 19 19 19 20 20 19 19 18 18 18 17 16 16 14 11 11 13 15 18 18 16 12 10 8 8 9 10 11 12 13 14 15 16 18 19 20 21 22 23 25 26 26 27 27 27 28 28 28 28 27 26 26 27 27 28 29 30 32 33 35 37
16 17 18 17 18 18 17 16 14 14 14 13 11 11 11 12 12 14 15 15 14 13 10 7 7 8 8 9 11 12 13 13 15 16 18 19 20 21 22 23 25 26 26 27 27 28 28 28 29 28 27 27 26 26 26 27 28 29 30 31 33 35 36
15 16 16 15 14 13 12 12 12 11 10 8 8 8 9 11 12 13 12 10 8 7 6 6 7 7 8 10 11 12 13 15 16 18 19 20 21 21 23 24 26 26 27 27 28 28 28 29 29 28 27 27 26 26 26 27 28 29 30 31 32 34 36
13 13 12 11 10 9 10 10 10 9 9 8 8 8 7 7 6 5 4 4 4 4 5 5 6 7 9 10 12 13 15 16 18 19 20 21 21 22 23 25 26 27 27 28 28 29 29 29 28 27 27 26 26 26 27 28 28 28 29 31 32 34 35
11 11 10 10 9 10 10 10 9 8 7 7 7 7 6 4 3 3 2 2 3 4 5 6 7 9 10 12 13 15 16 18 19 21 21 22 22 23 24 26 27 27 28 28 28 29 29 28 28 27 27 26 26 26 27 28 27 27 28 30 32 33 35
11 11 10 10 10 10 10 9 8 7 5 5 5 6 5 4 4 4 4 4 5 6 7 8 9 11 12 14 15 16 18 19 21 22 22 23 23 24 25 27 28 28 28 28 28 28 28 28 28 27 27 26 26 27 28 27 26 27 28 30 31 33 34
11 10 10 10 10 9 9 8 7 6 5 5 6 7 7 6 5 5 5 6 7 8 9 11 12 13 14 15 17 18 19 21 22 23 24 24 25 26 27 28 29 29 28 28 28 28 28 29 28 27 26 26 26 27 27 26 26 27 28 30 31 32 34
11 10 10 9 9 8 8 8 8 7 7 8 9 9 8 7 6 6 6 8 9 10 11 13 14 15 16 17 19 20 21 22 23 25 26 26 27 28 29 29 29 29 29 28 29 29 29 28 28 27 27 27 27 27 26 26 27 28 29 30 31 32 33
12 10 10 9 9 8 9 9 9 9 9 10 11 10 9 8 7 7 8 9 10 12 13 14 16 17 18 19 20 22 23 24 25 26 27 28 29 30 30 31 30 30 29 29 30 30 28 27 27 27 27 27 26 26 26 27 27 28 29 30 31 32 33
12 11 10 9 9 9 10 10 10 10 10 11 11 11 10 9 9 9 10 11 12 13 14 16 17 19 20 21 22 24 25 26 27 27 28 29 30 30 31 32 31 30 29 30 31 30 28 27 27 27 27 26 25 26 27 27 28 28 29 30 31 31 32
13 12 11 11 10 10 10 11 11 12 12 12 11 11 11 11 11 12 12 13 14 15 16 18 19 20 21 22 23 25 25 26 27 28 29 30 30 31 32 33 32 31 30 30 31 29 27 27 27 27 26 25 25 26 27 28 28 29 30 30 30 31 32
14 14 13 12 11 11 11 12 12 13 13 13 12 13 13 13 14 14 14 15 16 17 18 20 21 21 23 24 25 25 26 27 27 28 29 30 31 33 35 36 35 33 31 30 29 27 26 26 26 26 25 25 25 26 28 28 29 29 30 30 30 30 31
15 15 15 14 13 13 13 13 13 14 14 14 14 14 15 15 16 16 17 18 18 19 21 22 23 24 25 26 26 27 27 28 28 28 29 31 34 36 37 39 38 34 31 29 27 26 26 26 26 25 25 24 25 26 28 28 29 29 30 30 30 30 30
16 16 16 15 15 15 15 14 15 15 15 15 16 16 17 17 18 18 19 20 21 22 24 25 25 26 27 27 28 28 28 29 29 29 30 32 35 36 39 41 39 34 30 27 26 25 26 26 25 25 24 24 25 26 28 29 29 29 30 30 30 30 30
16 16 17 17 17 17 17 17 16 17 17 17 17 18 18 19 20 21 22 23 23 25 27 27 27 28 28 28 29 28 29 30 30 31 33 34 35 36 40 43 39 32 28 26 25 25 26 25 25 25 24 24 26 27 28 29 30 30 30 30 30 30 30
16 17 17 18 19 19 19 19 19 19 19 19 19 20 21 22 22 23 25 25 26 28 29 29 29 30 29 29 29 28 29 30 31 31 32 33 32 35 40 41 36 29 26 25 25 26 26 25 25 25 25 25 26 28 29 29 30 30 30 30 30 30 30
18 18 18 19 20 20 20 20 20 21 21 21 22 23 23 24 25 26 27 27 29 31 31 30 31 31 30 29 28 28 29 31 31 31 31 30 29 32 37 36 30 26 25 25 26 26 25 26 26 25 26 26 27 28 29 30 30 30 30 31 31 31 31
19 19 19 20 20 20 21 21 22 22 23 24 24 25 25 27 28 29 29 29 31 33 33 32 32 32 30 29 29 29 30 30 31 31 32 31 27 29 32 31 27 25 25 25 26 26 26 26 26 26 26 27 27 28 29 31 31 31 31 32 32 32 32
21 21 20 20 20 21 22 22 23 24 25 26 27 27 28 30 31 32 31 30 32 34 33 32 33 33 31 29 29 30 30 30 30 31 32 30 27 27 29 28 25 25 25 26 26 26 27 27 27 27 27 27 28 29 30 31 32 32 32 32 32 33 33
22 22 22 22 22 23 23 23 24 26 28 29 30 30 31 32 33 33 31 30 33 36 34 32 33 34 32 29 29 30 30 30 30 31 32 29 26 27 27 26 25 25 26 27 27 27 27 27 27 28 28 28 29 30 30 32 33 33 33 33 33 33 33
24 25 25 25 25 26 25 25 27 28 29 29 29 28 29 31 32 32 31 32 35 36 32 30 31 30 28 28 29 30 31 30 31 31 31 29 28 28 26 25 25 26 27 28 28 28 28 28 28 28 29 29 30 30 31 32 33 34 34 34 34 34 34
28 28 28 28 27 27 26 26 26 26 26 27 26 26 27 30 30 30 30 31 32 32 30 30 29 28 27 28 30 30 30 31 31 31 31 30 30 28 26 25 26 28 28 29 29 29 29 29 29 29 30 30 31 31 32 33 34 35 35 35 35 35 35
30 30 30 28 26 24 23 23 24 25 26 26 27 27 27 28 29 28 28 29 29 30 31 31 29 28 28 29 30 31 31 31 31 31 31 31 30 28 26 25 27 29 29 30 30 30 29 29 30 30 31 32 32 32 33 34 34 36 37 37 37 36 36
28 28 27 24 21 21 22 24 25 27 27 28 28 28 28 28 29 29 29 29 29 30 30 30 29 29 30 30 31 31 32 32 32 32 32 31 29 28 26 27 30 30 30 31 31 31 30 30 31 31 32 32 33 33 34 34 35 36 37 38 38 37 37
25 26 25 23 22 23 24 26 27 28 28 27 28 28 29 29 30 30 30 31 30 29 29 29 30 30 30 31 32 32 33 33 33 33 32 30 29 28 28 29 31 31 31 32 32 32 31 31 32 32 33 33 34 34 35 35 35 36 37 38 39 39 38
Wind_Direction
287 287 285 282 277 276 275 272 271 275 280 283 281 280 279 275 271 268 266 267 271 273 272 272 273 276 277 277 276 276 275 275 274 271 269 268 271 277 283 288 292 297 302 306 309 312 314 317 319 321 323 324 325 327 330 332 334 335 335 336 336 335 334
290 290 287 281 276 274 274 273 273 277 282 283 280 279 280 279 276 272 267 269 272 271 271 275 277 278 278 276 274 273 273 273 270 265 263 266 272 279 285 291 298 303 308 311 313 315 317 319 321 322 324 325 327 329 332 333 334 336 336 336 335 332 330
292 292 289 283 277 274 275 275 275 279 282 281 279 277 279 280 278 273 268 268 270 270 272 276 278 278 277 276 274 273 272 271 266 259 259 265 272 279 287 295 302 306 310 312 314 316 318 320 321 322 325 326 328 329 331 332 333 334 334 333 332 330 330
291 293 291 285 280 277 275 273 274 280 284 282 277 276 278 278 276 271 265 265 266 267 271 276 277 278 278 278 276 274 271 267 261 257 259 265 272 281 291 299 304 308 310 312 314 317 319 320 321 322 324 326 326 327 328 330 331 332 332 332 331 331 332
293 292 289 285 283 279 274 271 273 279 283 281 277 275 277 277 274 266 262 263 263 265 271 272 272 275 277 277 274 271 266 261 257 256 261 269 279 289 298 303 306 309 310 313 315 316 317 319 320 322 323 325 325 326 327 329 331 331 332 331 331 333 335
295 293 288 284 284 281 277 275 276 279 281 281 277 274 274 275 273 267 265 267 267 268 269 266 267 274 277 274 269 263 256 252 253 258 268 279 288 296 301 304 306 308 311 313 314 315 317 318 320 322 323 324 325 326 328 330 330 331 331 331 333 334 336
296 295 291 289 287 283 280 280 279 278 278 279 278 275 272 273 275 273 270 270 269 264 259 257 262 270 272 267 259 252 247 248 256 267 277 285 293 298 300 302 305 308 311 312 313 315 316 318 320 321 323 324 326 328 330 330 330 330 330 331 333 335 338
294 294 293 295 294 288 283 281 280 279 278 277 275 274 272 272 275 275 271 266 261 254 250 252 257 261 260 256 250 246 247 254 263 273 282 288 293 296 298 302 306 309 310 311 313 315 316 317 319 320 322 325 328 329 328 328 328 328 329 331 334 337 339
291 292 293 297 298 293 286 282 281 281 279 275 272 273 273 269 267 267 263 257 251 248 249 251 253 254 253 250 249 249 252 260 269 276 283 288 292 295 299 303 307 308 310 312 315 316 316 317 318 320 323 326 328 328 326 326 326 327 328 331 334 337 339
288 290 291 294 295 293 289 286 284 283 279 274 271 270 268 264 260 257 252 247 244 247 251 252 252 251 250 251 254 253 257 265 272 278 284 288 292 297 302 305 307 308 311 314 315 316 315 316 318 321 324 326 327 326 324 324 325 326 328 331 334 337 339
288 289 291 292 291 290 289 289 288 283 277 276 273 267 263 260 254 248 244 242 242 248 252 253 251 249 250 254 255 256 263 269 274 280 285 290 296 300 303 305 307 310 313 315 315 315 314 316 319 323 325 326 325 323 322 323 323 325 328 331 334 336 339
289 289 291 291 290 290 289 289 286 280 276 277 274 268 261 252 244 243 244 244 247 252 255 253 250 248 249 252 255 261 267 270 275 282 288 295 299 301 303 306 309 312 313 314 315 314 314 317 320 323 325 324 322 320 320 321 323 326 329 332 334 336 339
289 288 289 290 290 290 288 286 283 281 280 277 274 269 257 244 247 257 255 253 254 254 252 247 241 241 244 251 258 263 266 272 280 287 293 298 299 301 305 308 311 311 312 314 315 315 316 318 320 322 323 321 319 318 319 321 323 327 329 331 334 337 340
285 286 288 290 289 288 286 282 281 284 284 279 272 267 254 249 263 269 262 259 257 251 245 239 238 242 248 255 260 265 272 280 287 292 296 297 299 303 307 310 310 311 312 314 316 316 317 318 319 321 321 319 318 317 318 320 323 327 329 331 333 337 340
280 283 287 289 291 292 288 284 283 286 290 289 279 272 265 264 269 270 264 262 255 246 245 242 242 250 256 264 270 277 283 287 291 294 296 298 301 305 308 309 309 310 313 315 317 318 317 318 319 320 319 318 317 317 318 320 324 327 329 331 334 337 340
274 277 283 288 292 296 297 295 292 290 292 291 284 281 283 282 283 284 277 267 255 252 252 250 256 264 270 277 282 284 288 290 294 296 297 299 302 306 308 308 309 310 313 315 317 318 317 317 318 319 317 316 316 317 318 321 324 327 329 332 335 338 340
268 270 277 282 285 290 297 299 298 295 294 291 286 287 292 295 303 309 302 287 278 273 273 275 279 281 283 285 285 287 291 294 297 298 298 299 302 306 307 307 308 310 312 315 317 317 317 317 317 317 315 316 316 317 319 321 324 327 329 332 335 338 339
262 266 270 273 276 281 289 292 291 293 297 296 288 280 278 283 291 296 298 297 293 289 288 289 289 289 287 286 288 293 297 299 300 300 299 300 302 305 306 307 309 310 311 315 317 317 317 317 316 315 315 316 316 317 319 320 324 327 329 331 335 337 337
259 261 262 266 270 275 280 282 283 288 292 287 280 274 275 278 284 292 294 293 293 294 295 295 294 292 290 290 293 297 300 302 302 301 300 301 302 304 306 307 308 308 311 313 315 316 317 315 314 314 315 315 316 317 318 320 324 327 328 330 333 334 335
256 258 262 265 268 271 273 273 276 283 287 283 281 280 281 283 287 293 293 292 294 295 296 296 296 294 292 292 294 296 299 300 301 302 302 302 302 304 305 306 306 307 309 311 313 315 315 313 313 313 314 315 315 316 317 320 323 325 326 329 331 331 333
256 259 265 269 270 269 267 268 275 281 282 283 283 283 283 285 287 288 288 290 291 291 293 294 293 292 292 292 292 294 296 297 298 300 300 300 301 302 303 303 303 305 306 308 311 313 312 311 312 312 313 314 315 316 317 320 322 323 325 327 328 329 331
256 258 263 268 269 268 266 269 274 278 280 282 283 284 285 285 283 280 281 284 284 286 288 288 289 289 290 291 291 292 293 295 296 298 298 299 299 300 301 302 301 303 304 306 310 312 310 309 310 312 312 312 314 316 318 320 321 322 324 325 326 327 330
256 257 259 262 265 267 268 270 273 277 280 282 283 285 286 284 282 280 279 280 281 284 285 285 286 287 288 289 289 290 291 293 295 297 298 298 297 299 301 301 300 301 302 305 309 310 308 308 310 311 311 311 314 316 317 319 321 322 323 323 324 326 329
255 255 256 259 262 264 266 268 271 274 277 279 281 283 284 284 283 282 282 282 283 284 283 283 284 285 285 286 287 288 291 293 296 299 299 298 297 299 301 300 299 301 302 305 308 307 306 307 309 309 309 311 313 315 317 319 320 321 321 321 322 325 327
254 254 255 256 257 259 262 266 268 270 272 275 278 280 281 282 281 281 281 280 281 281 280 281 282 282 283 284 286 288 290 293 297 300 300 297 296 297 299 298 299 302 303 304 305 304 304 307 308 308 309 311 312 314 316 318 319 319 320 320 322 324 325
253 255 256 256 256 257 260 263 265 268 271 274 277 279 281 281 281 281 280 279 279 279 279 280 280 280 282 283 285 288 291 295 298 299 299 296 295 297 298 297 299 302 302 301 301 301 303 305 306 307 308 309 310 312 313 315 317 318 320 321 321 321 322
253 255 256 257 258 258 260 261 263 266 269 271 275 279 281 282 281 281 280 279 278 276 276 278 278 279 281 283 285 290 294 297 298 299 299 297 299 302 300 297 299 301 299 297 298 300 301 303 304 306 307 308 309 311 312 314 317 318 319 319 318 318 320
253 255 256 256 257 258 260 261 262 265 267 269 273 276 277 278 278 278 278 277 275 274 275 276 277 279 282 285 288 293 295 296 298 298 297 298 301 302 299 298 298 298 296 295 296 298 300 301 303 305 307 308 308 309 312 314 315 316 317 317 316 317 320
254 255 255 254 256 258 260 261 262 264 266 268 271 273 274 276 276 277 278 276 274 274 275 277 278 281 284 287 289 291 292 294 296 297 297 298 300 298 296 297 297 294 293 293 295 297 298 300 302 304 305 305 306 308 311 312 313 314 314 315 316 318 321
254 254 254 254 256 257 260 261 263 265 267 268 271 272 274 277 278 278 277 276 275 275 277 280 281 283 285 287 287 288 290 293 295 296 297 298 297 295 294 295 294 292 291 292 294 296 297 298 301 302 303 304 305 308 310 310 311 312 313 315 316 318 320
255 255 254 254 256 257 259 261 263 266 269 270 272 274 276 278 278 277 278 278 278 278 280 282 282 282 284 284 284 286 289 292 292 294 297 297 294 291 291 291 291 289 289 291 292 294 295 297 299 300 301 304 306 307 308 309 310 311 312 314 315 317 320
260 259 257 257 258 259 260 263 266 269 271 272 273 275 277 277 277 277 279 279 278 278 281 284 284 284 283 282 284 286 289 291 292 294 297 297 291 286 286 287 288 288 288 289 291 292 294 295 297 298 300 303 305 306 307 307 309 310 311 313 315 317 319
265 263 261 260 260 262 265 268 271 273 274 274 275 276 276 276 278 280 282 281 279 279 283 289 291 290 286 283 285 288 289 291 292 293 295 294 289 285 285 286 286 286 286 288 289 291 292 294 296 297 299 301 303 304 305 306 308 309 310 312 313 315 317
266 264 263 262 263 267 270 273 274 275 276 277 277 277 277 278 281 285 286 286 284 283 286 291 293 292 288 286 287 289 289 290 291 291 291 290 288 286 285 284 283 283 284 286 288 290 292 293 295 295 297 299 301 303 304 306 307 308 309 310 312 314 316
266 266 267 266 266 268 271 273 276 278 279 280 280 281 282 283 285 286 287 287 288 288 289 290 290 289 288 288 288 289 290 291 292 292 291 290 288 286 284 281 280 280 283 285 287 289 291 292 293 294 296 298 300 302 304 305 306 307 308 310 312 313 314
270 270 268 268 270 273 274 276 279 281 282 283 283 284 285 286 287 288 288 289 289 289 289 290 289 288 287 287 289 290 291 292 292 292 292 290 288 285 281 277 278 280 283 285 287 288 290 290 291 292 294 297 299 301 302 303 304 306 307 309 310 311 312
275 275 275 277 281 281 279 279 280 281 284 285 286 287 288 288 288 289 289 290 290 289 288 286 286 286 286 287 289 290 291 291 291 291 290 288 285 281 277 276 279 283 285 285 286 287 288 288 289 291 293 295 298 299 300 301 302 304 306 307 308 309 309
Height
5815 5815 5815 5816 5816 5817 5816 5816 5817 5817 5817 5817 5817 5816 5817 5819 5819 5820 5821 5821 5821 5821 5821 5821 5821 5821 5821 5821 5821 5821 5821 5821 5821 5821 5821 5821 5821 5821 5821 5821 5821 5820 5820 5819 5819 5818 5817 5816 5814 5812 5811 5810 5808 5806 5804 5802 5800 5797 5795 5792 5790 5787 5785
5814 5813 5813 5813 5813 5814 5813 5814 5814 5815 5815 5815 5814 5814 5815 5816 5816 5817 5818 5818 5819 5819 5819 5819 5819 5819 5819 5819 5819 5819 5819 5819 5819 5819 5819 5819 5820 5820 5820 5819 5819 5818 5818 5816 5815 5815 5814 5813 5811 5810 5808 5806 5805 5803 5801 5799 5797 5795 5792 5790 5789 5786 5784
5813 5811 5810 5810 5810 5810 5810 5811 5811 5811 5812 5812 5811 5811 5812 5813 5813 5814 5815 5815 5816 5816 5817 5817 5817 5817 5817 5817 5817 5817 5817 5817 5817 5817 5818 5818 5819 5818 5818 5818 5817 5816 5815 5814 5813 5812 5811 5810 5809 5808 5806 5804 5802 5800 5798 5797 5795 5793 5791 5789 5787 5784 5781
5811 5810 5808 5807 5807 5808 5807 5808 5808 5808 5809 5809 5808 5809 5809 5810 5810 5811 5812 5812 5813 5814 5814 5815 5815 5815 5815 5815 5815 5815 5815 5815 5815 5816 5816 5817 5817 5817 5817 5816 5815 5814 5813 5812 5811 5810 5808 5807 5806 5805 5804 5802 5801 5799 5797 5795 5793 5791 5789 5787 5784 5781 5778
5807 5807 5806 5805 5805 5805 5805 5805 5806 5806 5806 5806 5806 5806 5807 5807 5808 5808 5809 5810 5811 5811 5812 5812 5813 5813 5812 5812 5812 5812 5813 5813 5813 5814 5815 5815 5815 5815 5815 5814 5813 5812 5811 5810 5809 5807 5806 5805 5803 5802 5801 5800 5798 5797 5795 5793 5790 5788 5787 5784 5781 5777 5774
5804 5804 5803 5803 5803 5803 5803 5803 5803 5804 5804 5804 5804 5804 5804 5805 5806 5806 5806 5807 5808 5809 5810 5810 5810 5811 5810 5810 5810 5811 5811 5811 5812 5813 5813 5813 5813 5813 5812 5811 5811 5810 5809 5808 5806 5805 5804 5802 5801 5800 5798 5797 5795 5794 5792 5790 5788 5785 5783 5781 5778 5774 5770
5801 5801 5801 5800 5800 5800 5800 5800 5801 5801 5801 5802 5802 5802 5802 5803 5803 5804 5804 5805 5806 5807 5807 5808 5808 5808 5808 5808 5808 5809 5809 5810 5811 5811 5811 5811 5811 5811 5810 5809 5809 5807 5806 5805 5804 5803 5802 5800 5799 5797 5796 5795 5793 5791 5789 5787 5785 5783 5780 5778 5775 5771 5767
5799 5798 5798 5798 5798 5798 5798 5798 5798 5798 5799 5799 5800 5800 5800 5801 5801 5801 5802 5803 5804 5805 5805 5806 5806 5806 5806 5806 5806 5807 5808 5809 5809 5809 5809 5809 5809 5809 5808 5807 5806 5805 5804 5803 5802 5801 5799 5798 5797 5795 5794 5792 5790 5788 5787 5785 5783 5780 5777 5774 5771 5768 5764
5797 5797 5796 5796 5796 5796 5796 5796 5796 5796 5796 5797 5797 5797 5798 5798 5799 5799 5800 5801 5802 5802 5803 5804 5804 5804 5804 5804 5805 5806 5806 5807 5807 5807 5807 5807 5807 5807 5806 5805 5804 5803 5802 5801 5800 5798 5797 5796 5795 5793 5792 5790 5789 5786 5784 5782 5780 5777 5774 5771 5768 5764 5761
5795 5795 5795 5795 5795 5795 5794 5794 5794 5794 5794 5794 5794 5795 5795 5796 5796 5797 5798 5799 5800 5801 5801 5802 5802 5802 5802 5803 5804 5804 5805 5805 5806 5806 5805 5805 5805 5804 5803 5803 5802 5801 5800 5799 5798 5796 5795 5794 5793 5791 5789 5788 5786 5784 5782 5779 5777 5774 5771 5768 5765 5761 5758
5793 5793 5793 5793 5793 5793 5793 5792 5792 5792 5791 5791 5791 5792 5793 5793 5794 5795 5796 5797 5798 5799 5799 5799 5800 5800 5801 5802 5803 5803 5803 5804 5804 5804 5804 5803 5803 5802 5801 5800 5799 5799 5798 5796 5795 5794 5793 5792 5790 5789 5787 5785 5783 5781 5779 5777 5774 5772 5769 5765 5762 5759 5755
5791 5791 5791 5792 5792 5791 5791 5790 5790 5790 5789 5790 5790 5790 5791 5791 5792 5793 5795 5795 5796 5797 5797 5797 5798 5799 5800 5801 5801 5801 5802 5802 5802 5802 5801 5801 5801 5800 5799 5798 5797 5796 5795 5794 5793 5792 5791 5789 5788 5786 5784 5783 5781 5779 5777 5774 5772 5769 5766 5762 5759 5756 5753
5789 5790 5790 5790 5790 5790 5789 5789 5788 5788 5788 5788 5788 5789 5789 5790 5791 5792 5793 5793 5794 5794 5795 5796 5797 5798 5798 5799 5799 5800 5800 5800 5800 5799 5799 5799 5798 5797 5797 5796 5795 5794 5793 5792 5791 5790 5788 5787 5785 5784 5782 5780 5778 5776 5774 5772 5769 5766 5763 5760 5757 5754 5750
5788 5788 5788 5789 5789 5788 5788 5788 5787 5787 5786 5787 5787 5787 5788 5788 5789 5790 5791 5791 5792 5793 5794 5795 5795 5796 5797 5797 5798 5798 5798 5798 5797 5797 5797 5796 5796 5795 5794 5793 5792 5792 5791 5790 5789 5787 5786 5785 5783 5781 5779 5778 5776 5774 5772 5769 5767 5764 5761 5758 5755 5751 5748
5787 5787 5787 5787 5787 5787 5786 5786 5786 5786 5785 5785 5786 5786 5787 5787 5788 5788 5789 5790 5791 5792 5793 5793 5794 5794 5795 5795 5796 5796 5796 5795 5795 5795 5795 5794 5793 5792 5791 5791 5790 5789 5788 5787 5786 5785 5784 5782 5780 5778 5777 5775 5773 5771 5769 5766 5764 5761 5758 5755 5752 5749 5746
5785 5786 5786 5786 5785 5785 5785 5785 5784 5784 5784 5784 5784 5785 5786 5786 5787 5787 5788 5789 5790 5790 5791 5792 5792 5793 5793 5793 5794 5794 5794 5793 5793 5793 5792 5791 5791 5790 5789 5789 5788 5787 5786 5785 5784 5783 5781 5779 5777 5776 5774 5772 5770 5768 5766 5763 5761 5758 5755 5752 5750 5747 5744
5784 5784 5784 5784 5784 5784 5784 5783 5783 5783 5783 5783 5783 5784 5784 5785 5785 5786 5787 5787 5788 5789 5789 5790 5790 5791 5791 5792 5792 5792 5791 5791 5791 5790 5789 5789 5788 5787 5787 5786 5785 5784 5783 5782 5781 5780 5778 5776 5775 5773 5771 5769 5767 5765 5763 5760 5758 5755 5753 5750 5747 5744 5742
5782 5783 5783 5783 5783 5782 5782 5782 5782 5782 5781 5782 5782 5783 5783 5784 5784 5785 5785 5786 5787 5788 5788 5788 5789 5789 5789 5790 5790 5790 5789 5789 5788 5788 5787 5786 5786 5785 5784 5784 5783 5782 5781 5780 5778 5777 5775 5774 5772 5770 5768 5766 5764 5762 5760 5757 5755 5752 5750 5747 5745 5742 5739
5780 5781 5781 5781 5781 5781 5781 5781 5781 5781 5781 5781 5782 5782 5782 5782 5783 5783 5784 5785 5785 5786 5786 5787 5787 5787 5788 5788 5788 5788 5787 5787 5786 5785 5785 5784 5783 5783 5782 5781 5780 5779 5778 5776 5775 5774 5772 5771 5769 5767 5765 5763 5761 5759 5757 5754 5752 5749 5747 5745 5742 5739 5737
5779 5779 5779 5779 5779 5779 5780 5780 5780 5780 5780 5780 5781 5781 5781 5781 5781 5782 5782 5783 5784 5784 5785 5785 5785 5786 5786 5786 5786 5786 5785 5784 5784 5783 5782 5781 5781 5780 5779 5778 5777 5776 5774 5773 5772 5771 5769 5768 5766 5764 5762 5760 5758 5756 5754 5751 5749 5747 5744 5742 5739 5737 5734
5777 5777 5778 5778 5778 5778 5778 5779 5779 5779 5779 5779 5779 5779 5779 5779 5780 5780 5781 5782 5782 5783 5783 5783 5784 5784 5784 5784 5783 5783 5782 5782 5781 5780 5779 5779 5778 5777 5776 5775 5773 5772 5771 5770 5769 5767 5766 5765 5763 5761 5759 5757 5755 5753 5751 5748 5746 5744 5741 5739 5736 5734 5731
5776 5776 5776 5777 5776 5777 5777 5777 5777 5777 5778 5778 5778 5778 5778 5778 5778 5779 5779 5780 5781 5781 5781 5781 5781 5781 5781 5781 5781 5780 5780 5779 5778 5777 5777 5776 5775 5774 5773 5771 5770 5769 5768 5767 5766 5764 5763 5761 5760 5758 5756 5754 5752 5750 5748 5745 5743 5741 5738 5736 5733 5731 5728
5774 5774 5775 5775 5775 5775 5775 5776 5776 5776 5776 5777 5777 5777 5777 5777 5777 5778 5778 5778 5779 5779 5779 5779 5779 5779 5779 5778 5778 5777 5777 5776 5775 5775 5774 5773 5772 5770 5769 5768 5766 5765 5764 5764 5762 5761 5760 5758 5757 5755 5753 5751 5749 5747 5744 5742 5740 5737 5735 5733 5730 5728 5725
5772 5773 5773 5774 5774 5774 5774 5774 5775 5775 5775 5775 5776 5776 5776 5776 5776 5776 5776 5776 5777 5777 5777 5776 5776 5776 5776 5775 5775 5774 5774 5773 5773 5772 5771 5769 5768 5767 5766 5764 5763 5762 5761 5760 5759 5758 5757 5755 5753 5751 5750 5748 5746 5743 5741 5739 5737 5734 5732 5730 5728 5725 5722
5770 5771 5771 5772 5772 5772 5773 5773 5773 5773 5774 5774 5774 5774 5774 5774 5774 5774 5775 5774 5775 5775 5774 5774 5774 5773 5773 5773 5772 5772 5771 5770 5770 5769 5767 5766 5765 5763 5762 5760 5759 5758 5758 5757 5756 5755 5753 5752 5750 5748 5746 5744 5742 5740 5738 5736 5734 5732 5729 5727 5725 5722 5720
5768 5768 5769 5770 5770 5770 5771 5771 5771 5772 5772 5772 5772 5772 5773 5773 5773 5773 5772 5772 5772 5772 5771 5771 5771 5770 5770 5770 5769 5769 5768 5767 5766 5765 5764 5762 5761 5760 5758 5756 5755 5755 5754 5753 5752 5751 5750 5748 5746 5745 5743 5741 5739 5738 5736 5733 5731 5729 5727 5724 5722 5720 5717
5765 5766 5766 5767 5767 5768 5769 5769 5770 5770 5770 5771 5771 5771 5771 5771 5770 5770 5770 5770 5770 5769 5768 5768 5768 5767 5767 5767 5766 5766 5765 5763 5762 5761 5760 5758 5757 5755 5754 5752 5752 5751 5751 5750 5749 5748 5747 5745 5743 5741 5740 5738 5736 5734 5733 5730 5728 5726 5724 5722 5720 5718 5715
5763 5764 5764 5765 5765 5766 5766 5767 5768 5768 5768 5769 5769 5769 5769 5768 5768 5768 5767 5767 5767 5766 5765 5765 5765 5764 5764 5764 5763 5762 5761 5759 5758 5757 5756 5754 5753 5752 5750 5749 5749 5748 5747 5747 5746 5744 5743 5741 5739 5738 5736 5734 5733 5731 5729 5727 5725 5724 5722 5720 5718 5715 5712
5761 5761 5762 5762 5763 5764 5764 5765 5765 5766 5766 5766 5766 5766 5766 5766 5765 5765 5765 5765 5764 5762 5762 5762 5762 5761 5761 5760 5760 5759 5757 5756 5755 5753 5752 5750 5749 5748 5747 5746 5745 5744 5744 5743 5742 5741 5739 5737 5736 5734 5733 5732 5730 5728 5726 5725 5723 5721 5719 5717 5714 5711 5708
5758 5759 5760 5760 5761 5761 5762 5762 5763 5763 5763 5763 5763 5763 5763 5763 5762 5762 5761 5762 5761 5759 5759 5759 5758 5758 5757 5757 5756 5755 5754 5753 5751 5750 5748 5746 5745 5745 5744 5743 5742 5741 5741 5740 5739 5737 5736 5734 5732 5731 5730 5728 5727 5725 5723 5721 5720 5718 5716 5713 5710 5707 5705
5756 5757 5757 5758 5758 5759 5759 5760 5760 5761 5761 5760 5760 5761 5760 5760 5759 5758 5758 5759 5757 5755 5756 5756 5755 5754 5754 5753 5753 5751 5750 5749 5748 5746 5744 5742 5741 5741 5740 5740 5739 5738 5737 5736 5735 5734 5732 5731 5729 5727 5726 5725 5723 5721 5720 5718 5716 5714 5712 5710 5707 5704 5701
5754 5754 5755 5755 5756 5756 5756 5757 5757 5757 5757 5757 5757 5757 5757 5756 5755 5754 5754 5755 5753 5751 5752 5752 5751 5750 5750 5749 5749 5747 5746 5745 5744 5742 5740 5739 5738 5737 5737 5736 5735 5734 5734 5733 5732 5730 5729 5727 5726 5724 5723 5721 5720 5718 5716 5715 5713 5711 5708 5706 5703 5700 5697
5751 5751 5751 5751 5752 5752 5753 5754 5754 5754 5753 5753 5753 5754 5753 5751 5750 5750 5750 5750 5748 5746 5748 5748 5746 5746 5746 5745 5744 5743 5742 5741 5740 5738 5737 5736 5735 5734 5733 5733 5732 5731 5730 5729 5728 5727 5725 5724 5722 5721 5719 5718 5716 5715 5713 5711 5709 5707 5705 5702 5700 5697 5694
5746 5747 5747 5747 5748 5749 5750 5750 5750 5749 5749 5749 5749 5750 5749 5747 5747 5747 5747 5746 5745 5744 5744 5744 5743 5742 5742 5741 5740 5739 5739 5738 5736 5735 5733 5732 5731 5731 5730 5730 5728 5727 5727 5726 5725 5723 5722 5720 5719 5717 5716 5714 5713 5711 5710 5708 5706 5704 5701 5699 5696 5693 5690
5742 5742 5742 5743 5745 5746 5746 5746 5746 5746 5746 5746 5746 5745 5745 5744 5744 5744 5743 5743 5742 5741 5741 5740 5740 5739 5738 5737 5736 5735 5735 5734 5732 5731 5729 5729 5728 5728 5727 5726 5724 5723 5723 5722 5721 5720 5718 5717 5715 5713 5712 5710 5709 5708 5706 5704 5702 5700 5697 5695 5692 5690 5687
5739 5739 5740 5741 5742 5743 5743 5743 5743 5742 5742 5742 5742 5742 5742 5742 5741 5741 5740 5739 5739 5738 5737 5737 5736 5735 5734 5733 5732 5732 5731 5729 5728 5726 5725 5725 5725 5725 5724 5722 5720 5719 5719 5718 5717 5716 5714 5713 5711 5710 5708 5706 5705 5703 5702 5700 5698 5696 5693 5691 5689 5686 5684
5737 5737 5737 5738 5739 5739 5739 5739 5739 5739 5739 5739 5739 5739 5739 5738 5738 5737 5736 5735 5735 5734 5733 5733 5732 5731 5730 5729 5728 5727 5726 5725 5724 5722 5722 5722 5721 5721 5720 5718 5716 5716 5716 5714 5713 5712 5710 5709 5707 5706 5704 5703 5701 5699 5697 5695 5693 5691 5689 5687 5685 5683 5680